Atlanta Fulton, GA

6:09 AM EST on November 21, 2019 (GMT -0500)
Fulton County-Brown

Weather History for KFTY - September, 2019

Change the Weather History Date:

Sunday, September 22, 2019

  Actual Average Record
Temperature  
Mean Temperature 72 °F 71 °F  
Max Temperature 87 °F 82 °F 91 °F (2010)
Min Temperature 57 °F 60 °F 51 °F (1999)
Degree Days  
Heating Degree Days 0 1  
Month to date heating degree days 0 1  
Since 1 July heating degree days 0 1  
Cooling Degree Days 7 6  
Month to date cooling degree days 327 202  
Year to date cooling degree days 2043 1639  
Growing Degree Days 22 (Base 50)    
Moisture  
Dew Point 57 °F    
Average Humidity 61    
Maximum Humidity 93    
Minimum Humidity 29    
Precipitation  
Precipitation 0.00 in 0.13 in 2.49 in (1958)
Month to date precipitation 1.61 2.77  
Year to date precipitation 31.90 38.19  
Sea Level Pressure  
Sea Level Pressure 30.17 in    
Wind  
Wind Speed 1 mph (ESE)    
Max Wind Speed 9 mph    
Max Gust Speed 12 mph    
Visibility 10 miles    
Events      
T = Trace of Precipitation, MM = Missing Value Source: NWS Daily Summary

Daily Weather History Graph

Daily Weather History Graph

Search for Another Location

Airport or City:

Astronomy

Sep. 22, 2019 Rise Set
Actual Time 7:26 AM EDT 7:35 PM EDT
Civil Twilight 7:01 AM EDT 7:59 PM EDT
Nautical Twilight 6:32 AM EDT 8:29 PM EDT
Astronomical Twilight 6:02 AM EDT 8:58 PM EDT
Moon 12:31 AM EDT (9/22) 3:12 PM EDT (9/22)
Length of Visible Light 12h 58m
Length of Day
12h 09m
Last Quarter, 44% of the Moon is Illuminated
Sep 22
Last Quarter
Sep 28
New
Oct 5
First Quarter
Oct 13
Full
Oct 21
Last Quarter

Hourly Weather History & Observations

Time (EDT) Temp. Heat Index Dew Point Humidity Pressure Visibility Wind Dir Wind Speed Gust Speed Precip Events Conditions
12:53 AM 64.0 °F - 59.0 °F 84% 30.20 in 10.0 mi Calm Calm - N/A   Clear
1:53 AM 63.0 °F - 59.0 °F 87% 30.19 in 10.0 mi Calm Calm - N/A   Clear
2:53 AM 63.0 °F - 59.0 °F 87% 30.19 in 10.0 mi Calm Calm - N/A   Clear
3:53 AM 62.1 °F - 57.9 °F 86% 30.19 in 10.0 mi Calm Calm - N/A   Clear
4:53 AM 59.0 °F - 57.0 °F 93% 30.19 in 10.0 mi Calm Calm - N/A   Clear
5:53 AM 59.0 °F - 57.0 °F 93% 30.20 in 10.0 mi Calm Calm - N/A   Clear
6:53 AM 57.9 °F - 55.9 °F 93% 30.21 in 10.0 mi Calm Calm - N/A   Clear
7:53 AM 57.9 °F - 55.9 °F 93% 30.22 in 10.0 mi Calm Calm - N/A   Clear
8:53 AM 64.0 °F - 59.0 °F 84% 30.24 in 10.0 mi Calm Calm - N/A   Clear
9:53 AM 71.1 °F - 61.0 °F 70% 30.25 in 10.0 mi Calm Calm - N/A   Clear
10:53 AM 75.9 °F - 61.0 °F 60% 30.24 in 10.0 mi Calm Calm - N/A   Clear
11:53 AM 79.0 °F - 60.1 °F 52% 30.22 in 10.0 mi Calm Calm - N/A   Clear
12:53 PM 81.0 °F 81.3 °F 59.0 °F 47% 30.19 in 10.0 mi North - - N/A   Clear
1:53 PM 82.9 °F 82.1 °F 55.9 °F 39% 30.16 in 10.0 mi Variable 4.6 mph - N/A   Clear
2:53 PM 84.9 °F 83.6 °F 55.0 °F 36% 30.14 in 10.0 mi East 3.5 mph - N/A   Clear
3:53 PM 86.0 °F 84.0 °F 53.1 °F 32% 30.11 in 10.0 mi SSW 8.1 mph - N/A   Clear
4:53 PM 86.0 °F - 52.0 °F 31% 30.10 in 10.0 mi Calm Calm - N/A   Clear
5:53 PM 87.1 °F - 52.0 °F 30% 30.09 in 10.0 mi Calm Calm - N/A   Clear
6:53 PM 86.0 °F - 50.0 °F 29% 30.09 in 10.0 mi SE 5.8 mph - N/A   Clear
7:53 PM 75.9 °F - 57.9 °F 54% 30.10 in 7.0 mi Calm Calm - N/A   Clear
8:53 PM 70.0 °F - 60.1 °F 71% 30.11 in 10.0 mi Calm Calm - N/A   Clear
9:53 PM 69.1 °F - 60.1 °F 73% 30.12 in 10.0 mi Calm Calm - N/A   Clear
10:53 PM 66.9 °F - 59.0 °F 76% 30.12 in 10.0 mi NE 3.5 mph - N/A   Clear
11:53 PM 66.0 °F - 57.9 °F 75% 30.12 in 10.0 mi Calm Calm - N/A   Clear